Lakeland Linder Regional Airport
KLAL : rendu visible

Aérodrome :











RETROUVEZ-NOUS SUR...

 
LOGIN :

S'inscrire | Disclaimer

   EN    FR    IT 

 









Légende :    VFR   VFR Marginal   IFR   IFR Intensif   IFR Très Intensif
Visi : 
Plafond : 
>= 8 km
>= 3000ft
5 à 8 km
1000 à 3000 ft
1500m à 5 km
500 à 1000 ft
800 à 1500m
200 à 500 ft
< 800m
< 200 ft
Symboles :   Orages  Brouillard  Fortes neiges  Fortes précipitations  Vent > 20 kt






- Altitude de l'aérodrome : 142 ft


KLAL - Lakeland Linder Regional

DERNIER METAR :
  • 082250Z 28008KT 10SM SCT035 30/23 A2993

METARs EXPIRÉS :
  • 082150Z 27008KT 10SM SCT033 30/23 A2994
  • 082050Z 29011G14KT 10SM FEW030 31/22 A2995

TAF KLAL
Valide du 08 à 21h jusqu'au 09 à 18h UTC


082104Z 0821/0918 29011G17KT P6SM VCSH SCT035 BKN250
FM090000 28006KT P6SM FEW030 BKN250
FM090200 VRB03KT P6SM FEW030 BKN250
FM091400 30006KT P6SM VCTS SCT040CB BKN250
FIR KZMA / Amérique du Nord



MET'MAP, la Météo Aéronautique d'un coup d'oeil ! - Copyright ORBIFLY Décembre 2007 - Disclaimer

ORBIFLY MET'MAP TEAM :

Programmation & Développement : Alexandra Zaïnal
Sur une idée originale de : Baudouin d'Aumeries
Assistance à la programmation : Marc-Olivier Méhu
Soutien technique & logistique : Manuel Goepfert

Contact : metmap@orbifly.com




SOURCES & CREDITS :

   NOAA       Earth
Advisory